P/2020 G1 ( Pimentel )

Japanese version
Home page
Updated on July 27, 2020

---------------------------------------------------------------------

* Profile

Discovery Date April 13, 2020
Magnitude 15.2 mag
Discoverer Eduardo Pimentel (Southern Observatory for Near Earth Research (SONEAR) at Oliveira, Brazil)

* Pictures

* Orbital Elements

Epoch 2020 Mar. 12.0 TT = JDT 2458920.5
T 2020 Mar. 17.41164 TT                                 Rudenko
q   0.5058139            (2000.0)            P               Q
n   0.14386575     Peri.  207.64872     +0.05998684     -0.95965400
a   3.6071520      Node   240.10158     +0.96433087     +0.12679342
e   0.8597747      Incl.   18.47461     +0.25781302     -0.25097335
P   6.85
From 468 observations 2020 Apr. 13-June 20, mean residual 0".9.

* Finding Charts

* Magnitudes Graph

        m1 = 16.5 + 5 log d + 5.0 log r

---------------------------------------------------------------------

The orbital elements are published on M.P.E.C. 2020-O07.
The charts are made with StellaNavigator Ver.10 (AstroArts).
The magnitudes graphs are made with Comet for Windows.

---------------------------------------------------------------------

Copyright(C) Seiichi Yoshida (comet@aerith.net). All rights reserved.